Tucson, Arizona, United States (85701)
Lat: 32.22N, Lon: 110.93W
Wx Zone: AZZ504
Local Info
Past Weather Observations for Saturday, April 30, 2016

NOTE: This archive is for the closest National Weather Service station to Tucson. Information may differ from the station used for current weather conditions.

Click here for Long-term Archive

Time Weather Temperature Dewpoint Humidity Pressure Winds Precip Visibility
23:58
Clear
59°F / 15°C 32°F / 0°C 36% 29.8 in
(1009 mb)
SW 4.6 mph
(SW 7 kph)
- 10SM
22:58
Clear
57°F / 14°C 37°F / 3°C 48% 29.77 in
(1008 mb)
SW 4.6 mph
(SW 7 kph)
- 10SM
22:48
Clear
59°F / 15°C 39°F / 4°C 48% 29.77 in
(1008 mb)
SW 3.5 mph
(SW 6 kph)
- 10SM
22:43
Partly Cloudy
59°F / 15°C 39°F / 4°C 48% 29.77 in
(1008 mb)
SW 3.5 mph
(SW 6 kph)
- 9SM
22:33
Partly Cloudy
Hazy
59°F / 15°C 37°F / 3°C 45% 29.77 in
(1008 mb)
S 3.5 mph
(S 6 kph)
- 6SM
21:58
Partly Cloudy
61°F / 16°C 39°F / 4°C 45% 29.77 in
(1008 mb)
Calm - 10SM
20:58
Mostly Cloudy
64°F / 18°C 37°F / 3°C 37% 29.77 in
(1008 mb)
WNW 6.9 mph
(WNW 11 kph)
- 10SM
19:58
Partly Cloudy
68°F / 20°C 28°F / -2°C 23% 29.71 in
(1006 mb)
W 15 mph
(W 24 kph)
- 10SM
18:58
Partly Cloudy
70°F / 21°C 34°F / 1°C 27% 29.68 in
(1005 mb)
W 16.1 mph
(W 26 kph)
- 10SM
17:58
Mostly Cloudy
75°F / 24°C 28°F / -2°C 18% 29.65 in
(1004 mb)
SW 11.5 mph
(SW 19 kph)
- 10SM
15:58
Mostly Cloudy
77°F / 25°C 27°F / -3°C 15% 29.62 in
(1003 mb)
SW 13.8 mph
(SW 22 kph)
- 10SM
14:58
Overcast
77°F / 25°C 32°F / 0°C 19% 29.65 in
(1004 mb)
SW 20.7 mph
(SW 33 kph)
- 10SM
14:18
Overcast
79°F / 26°C 32°F / 0°C 18% 29.65 in
(1004 mb)
S 16.1 mph
(S 26 kph)
- 10SM
13:58
Overcast
79°F / 26°C 30°F / -1°C 17% 29.65 in
(1004 mb)
SW 17.3 mph
(SW 28 kph)
- 10SM
13:55
Overcast
79°F / 26°C 30°F / -1°C 17% 29.65 in
(1004 mb)
SW 12.7 mph
(SW 20 kph)
- 10SM
13:22
Mostly Cloudy
77°F / 25°C 28°F / -2°C 17% 29.68 in
(1005 mb)
SW 15 mph
(SW 24 kph)
- 10SM
12:58
Partly Cloudy
77°F / 25°C 30°F / -1°C 18% 29.68 in
(1005 mb)
S 5.8 mph
(S 9 kph)
- 10SM
12:50
Partly Cloudy
77°F / 25°C 32°F / 0°C 19% 29.68 in
(1005 mb)
SSW 12.7 mph
(SSW 20 kph)
- 10SM
12:32
Clear
77°F / 25°C 30°F / -1°C 18% 29.71 in
(1006 mb)
S 19.6 mph
(S 32 kph)
- 10SM
11:58
Partly Cloudy
75°F / 24°C 30°F / -1°C 19% 29.71 in
(1006 mb)
SSE 9.2 mph
(SSE 15 kph)
- 10SM
10:58
Clear
73°F / 23°C 32°F / 0°C 22% 29.77 in
(1008 mb)
SSE 9.2 mph
(SSE 15 kph)
- 10SM
09:58
Clear
70°F / 21°C 32°F / 0°C 25% 29.8 in
(1009 mb)
SE 5.8 mph
(SE 9 kph)
- 10SM
08:58
Clear
68°F / 20°C 30°F / -1°C 24% 29.83 in
(1010 mb)
SE 8.1 mph
(SE 13 kph)
- 10SM
07:58
Clear
63°F / 17°C 34°F / 1°C 34% 29.83 in
(1010 mb)
SE 5.8 mph
(SE 9 kph)
- 10SM
06:58
Clear
57°F / 14°C 34°F / 1°C 41% 29.83 in
(1010 mb)
E 8.1 mph
(E 13 kph)
- 10SM
05:58
Clear
54°F / 12°C 34°F / 1°C 47% 29.83 in
(1010 mb)
SE 11.5 mph
(SE 19 kph)
- 10SM
04:58
Clear
54°F / 12°C 34°F / 1°C 47% 29.83 in
(1010 mb)
SE 9.2 mph
(SE 15 kph)
- 10SM
03:58
Clear
54°F / 12°C 34°F / 1°C 47% 29.83 in
(1010 mb)
SE 11.5 mph
(SE 19 kph)
- 10SM
02:58
Clear
54°F / 12°C 34°F / 1°C 47% 29.83 in
(1010 mb)
SE 10.4 mph
(SE 17 kph)
- 10SM
01:58
Clear
55°F / 13°C 32°F / 0°C 41% 29.83 in
(1010 mb)
ESE 4.6 mph
(ESE 7 kph)
- 10SM
00:58
Clear
59°F / 15°C 32°F / 0°C 36% 29.86 in
(1011 mb)
SE 6.9 mph
(SE 11 kph)
- 10SM
Time Weather Temperature Dewpoint Humidity Pressure Winds Precip Visibility


Weather for websites

WeatherForYou.com, LLC is not responsible for any damages or problems caused by this service. Current weather conditions are obtained from the closest station including government and personal stations which may have varying degrees of accuracy. Weather forecasts are derived from the NOAA NDFD. Like all things, this site belongs to Jesus Christ... He just trusts us to maintain it. If you have any questions or comments email webmaster@weatherforyou.com

Copyright © 2016, WeatherForYou.com LLC. All rights reserved.